DW0148 Weather Reports


Display with metric or nautical units.
time (UTC)temp
F
wind
direction
speed
MPH
gust
MPH
rain 1hr
in
rain 24hr
in
rain mn
in
humidity
%
barometer
mb
20170427051100 65 64 0.0 3.0 0.00 0.00 0.00 80 1007.1
20170427050559 65 63 0.0 3.0 0.00 0.00 0.00 79 1007.1
20170427050058 66 77 1.0 2.0 0.00 0.00 0.00 78 1007.1
20170427045557 66 115 0.0 1.0 0.00 0.00 0.00 77 1007.1
20170427045056 66 116 0.0 2.0 0.00 0.00 0.00 77 1007.1
20170427044554 66 160 1.0 2.0 0.00 0.00 0.00 76 1007.1
20170427044052 66 131 0.0 3.0 0.00 0.00 0.00 77 1007.1
20170427043551 65 139 1.0 3.0 0.00 0.00 0.00 78 1007.1
20170427043050 65 91 1.0 4.0 0.00 0.00 0.00 79 1007.1
20170427042549 65 84 2.0 4.0 0.00 0.00 0.00 79 1007.1
20170427042048 65 131 2.0 4.0 0.00 0.00 0.00 79 1006.8
20170427041547 65 116 0.0 1.0 0.00 0.00 0.00 79 1006.8
20170427041046 65 109 1.0 1.0 0.00 0.00 0.00 80 1006.8
20170427040544 64 69 1.0 1.0 0.00 0.00 0.00 81 1006.8
20170427040043 65 71 1.0 1.0 0.00 0.00 0.00 82 1006.8
20170427035542 65 71 0.0 2.0 0.00 0.00 0.00 81 1007.1
20170427035041 65 69 1.0 3.0 0.00 0.00 0.00 81 1006.8
20170427034540 65 62 0.0 3.0 0.00 0.00 0.00 82 1006.8
20170427034039 65 68 2.0 3.0 0.00 0.00 0.00 80 1006.8
20170427033537 65 131 0.0 1.0 0.00 0.00 0.00 80 1007.1
20170427033036 65 131 0.0 1.0 0.00 0.00 0.00 79 1006.8
20170427032535 65 91 0.0 1.0 0.00 0.00 0.00 79 1006.8
20170427032034 66 82 1.0 1.0 0.00 0.00 0.00 78 1006.8
20170427031533 66 82 0.0 1.0 0.00 0.00 0.00 77 1006.8
20170427031032 67 82 0.0 1.0 0.00 0.00 0.00 75 1006.8
20170427030531 67 82 0.0 2.0 0.00 0.00 0.00 75 1006.4
20170427030030 67 83 1.0 2.0 0.00 0.00 0.00 77 1006.4
20170427025529 67 104 1.0 3.0 0.00 0.00 0.00 75 1006.4
20170427025028 67 165 2.0 3.0 0.00 0.00 0.00 76 1006.4
20170427024527 67 50 2.0 3.0 0.00 0.00 0.00 75 1006.4
20170427024026 68 87 1.0 1.0 0.00 0.00 0.00 74 1006.4
20170427023525 68 99 1.0 1.0 0.00 0.00 0.00 74 1006.4
20170427023024 69 65 1.0 1.0 0.00 0.00 0.00 72 1006.4
20170427022524 69 95 1.0 2.0 0.00 0.00 0.00 71 1006.4
20170427022022 70 116 1.0 3.0 0.00 0.00 0.00 68 1006.4
20170427021521 71 180 1.0 3.0 0.00 0.00 0.00 67 1006.4
20170427021021 71 136 1.0 7.0 0.00 0.00 0.00 66 1006.1
20170427020500 72 140 2.0 9.0 0.00 0.00 0.00 64 1006.1
20170427015959 72 159 2.0 9.0 0.00 0.00 0.00 63 1006.1
20170427015457 72 163 2.0 9.0 0.00 0.00 0.00 63 1006.1
20170427014956 72 113 2.0 9.0 0.00 0.00 0.00 63 1006.1
20170427014455 72 189 3.0 8.0 0.00 0.00 0.00 64 1006.1
20170427013954 72 146 3.0 7.0 0.00 0.00 0.00 64 1005.8
20170427013453 71 113 1.0 8.0 0.00 0.00 0.00 65 1005.8
20170427012952 71 157 3.0 8.0 0.00 0.00 0.00 66 1005.8
20170427012451 71 143 3.0 8.0 0.00 0.00 0.00 66 1005.8
20170427011949 71 140 2.0 8.0 0.00 0.00 0.00 66 1005.8
20170427011448 71 134 2.0 10.0 0.00 0.00 0.00 68 1005.4
20170427010947 71 135 3.0 10.0 0.00 0.00 0.00 67 1005.4
20170427010447 71 77 1.0 8.0 0.00 0.00 0.00 68 1005.4
20170427005945 71 168 2.0 8.0 0.00 0.00 0.00 67 1005.4
20170427005444 71 102 1.0 5.0 0.00 0.00 0.00 68 1005.4
20170427004943 71 131 3.0 5.0 0.00 0.00 0.00 67 1005.4
20170427004442 71 98 2.0 4.0 0.00 0.00 0.00 71 1005.4
20170427003941 71 91 1.0 4.0 0.00 0.00 0.00 70 1005.4
20170427003440 71 83 1.0 3.0 0.00 0.00 0.00 70 1005.4
20170427002939 71 93 1.0 5.0 0.00 0.00 0.00 70 1005.4
20170427002438 71 112 1.0 5.0 0.00 0.00 0.00 70 1005.1
20170427001938 72 103 1.0 1.0 0.00 0.00 0.00 70 1005.1
20170427001436 73 131 1.0 4.0 0.00 0.00 0.00 69 1005.1
20170427000935 74 131 0.0 4.0 0.00 0.00 0.00 67 1005.1
20170427000434 74 106 2.0 5.0 0.00 0.00 0.00 64 1005.1
20170426235933 75 134 2.0 5.0 0.00 0.00 0.00 63 1005.1
20170426235432 75 136 2.0 6.0 0.00 0.00 0.00 61 1005.1
20170426234931 76 124 1.0 7.0 0.00 0.00 0.00 61 1005.1
20170426234430 76 147 0.0 8.0 0.00 0.00 0.00 59 1005.1
20170426233929 77 150 1.0 8.0 0.00 0.00 0.00 58 1005.1
20170426233428 77 196 3.0 8.0 0.00 0.00 0.00 57 1005.1
20170426232927 77 152 0.0 6.0 0.00 0.00 0.00 58 1005.1
20170426232426 77 160 3.0 9.0 0.00 0.00 0.00 57 1005.1
20170426231925 78 166 3.0 9.0 0.00 0.00 0.00 56 1005.1
20170426231424 78 162 2.0 11.0 0.00 0.00 0.00 55 1005.4
20170426230923 78 179 4.0 11.0 0.00 0.00 0.00 53 1005.4
20170426230422 78 181 4.0 11.0 0.00 0.00 0.00 53 1005.4
20170426225922 79 202 3.0 9.0 0.00 0.00 0.00 54 1005.4
20170426225421 79 159 6.0 9.0 0.00 0.00 0.00 53 1005.4
20170426224919 79 176 2.0 10.0 0.00 0.00 0.00 54 1005.4
20170426224417 79 167 2.0 11.0 0.00 0.00 0.00 54 1005.4
20170426223916 79 193 5.0 11.0 0.00 0.00 0.00 51 1005.4
20170426223414 79 182 7.0 10.0 0.00 0.00 0.00 51 1005.4
20170426222914 79 184 4.0 11.0 0.00 0.00 0.00 54 1005.4
20170426222413 80 166 6.0 11.0 0.00 0.00 0.00 51 1005.4
20170426221912 80 184 4.0 10.0 0.00 0.00 0.00 51 1005.4
20170426221411 80 177 5.0 13.0 0.00 0.00 0.00 52 1005.4
20170426220910 80 174 4.0 13.0 0.00 0.00 0.00 51 1005.4
20170426220409 81 187 4.0 13.0 0.00 0.00 0.00 49 1005.4
20170426215908 81 165 9.0 13.0 0.00 0.00 0.00 48 1005.4
20170426215407 81 186 6.0 13.0 0.00 0.00 0.00 48 1005.4
20170426214905 82 203 6.0 13.0 0.00 0.00 0.00 49 1005.4
20170426214404 82 158 6.0 10.0 0.00 0.00 0.00 48 1005.4
20170426213903 82 181 5.0 10.0 0.00 0.00 0.00 50 1005.4
20170426213402 82 156 6.0 13.0 0.00 0.00 0.00 49 1005.4
20170426212901 82 178 7.0 13.0 0.00 0.00 0.00 48 1005.8
20170426212400 82 148 4.0 11.0 0.00 0.00 0.00 50 1005.8
20170426211859 82 188 5.0 11.0 0.00 0.00 0.00 49 1005.8
20170426211358 82 177 6.0 11.0 0.00 0.00 0.00 51 1005.8
20170426210857 82 165 2.0 10.0 0.00 0.00 0.00 52 1005.8
20170426210356 82 144 3.0 12.0 0.00 0.00 0.00 52 1006.1
20170426205854 82 204 4.0 14.0 0.00 0.00 0.00 53 1006.1
20170426205354 82 161 4.0 14.0 0.00 0.00 0.00 51 1006.1
20170426204852 82 167 5.0 18.0 0.00 0.00 0.00 51 1006.1
20170426204351 82 185 10.0 18.0 0.00 0.00 0.00 49 1006.1
20170426203850 82 183 6.0 15.0 0.00 0.00 0.00 50 1006.1
20170426203348 82 146 2.0 15.0 0.00 0.00 0.00 51 1006.1
20170426202847 82 161 2.0 15.0 0.00 0.00 0.00 50 1006.4
20170426202347 82 196 4.0 18.0 0.00 0.00 0.00 51 1006.4
20170426201846 82 180 7.0 18.0 0.00 0.00 0.00 50 1006.4
20170426201344 82 242 3.0 10.0 0.00 0.00 0.00 50 1006.4
20170426200844 82 152 4.0 10.0 0.00 0.00 0.00 50 1006.4
20170426200342 81 59 3.0 15.0 0.00 0.00 0.00 51 1006.4
20170426195840 81 176 5.0 15.0 0.00 0.00 0.00 49 1006.4
20170426195339 81 179 3.0 18.0 0.00 0.00 0.00 53 1006.4
20170426194838 81 158 7.0 18.0 0.00 0.00 0.00 51 1006.4
20170426194337 81 193 7.0 16.0 0.00 0.00 0.00 53 1006.4
20170426193836 80 182 5.0 16.0 0.00 0.00 0.00 51 1006.8
20170426193335 80 188 5.0 20.0 0.00 0.00 0.00 50 1006.8
20170426192834 81 206 11.0 20.0 0.00 0.00 0.00 49 1006.8
20170426192333 80 174 6.0 11.0 0.00 0.00 0.00 51 1006.8
20170426191832 80 96 4.0 13.0 0.00 0.00 0.00 50 1006.8
20170426191330 80 216 3.0 14.0 0.00 0.00 0.00 52 1006.8
20170426190829 80 161 5.0 14.0 0.00 0.00 0.00 52 1007.1
20170426190328 80 29 5.0 13.0 0.00 0.00 0.00 51 1007.1
20170426185823 80 177 4.0 13.0 0.00 0.00 0.00 52 1007.1
20170426185322 80 208 3.0 14.0 0.00 0.00 0.00 54 1007.5
20170426184821 80 196 5.0 14.0 0.00 0.00 0.00 51 1007.5
20170426184320 79 48 4.0 10.0 0.00 0.00 0.00 54 1007.5
20170426183819 79 64 5.0 10.0 0.00 0.00 0.00 54 1007.8
20170426183318 79 44 5.0 11.0 0.00 0.00 0.00 53 1007.8
20170426182817 79 31 4.0 11.0 0.00 0.00 0.00 53 1007.8
20170426182316 79 186 3.0 14.0 0.00 0.00 0.00 55 1008.1
20170426181815 78 152 4.0 14.0 0.00 0.00 0.00 54 1008.1
20170426181314 78 192 4.0 9.0 0.00 0.00 0.00 56 1008.1
20170426180813 79 56 5.0 9.0 0.00 0.00 0.00 56 1008.1
20170426180312 78 68 3.0 8.0 0.00 0.00 0.00 54 1008.1
20170426175811 78 64 4.0 9.0 0.00 0.00 0.00 55 1008.5
20170426175235 77 206 3.0 9.0 0.00 0.00 0.00 54 1008.5
20170426174734 77 163 4.0 10.0 0.00 0.00 0.00 56 1008.5
20170426174233 77 265 2.0 10.0 0.00 0.00 0.00 55 1008.8
20170426173732 77 182 3.0 9.0 0.00 0.00 0.00 57 1008.8
20170426173231 77 211 3.0 11.0 0.00 0.00 0.00 57 1008.8
20170426172730 77 190 6.0 11.0 0.00 0.00 0.00 57 1008.8
20170426172229 77 138 2.0 11.0 0.00 0.00 0.00 62 1008.8
20170426171728 77 141 3.0 10.0 0.00 0.00 0.00 57 1009.1
20170426171227 77 172 5.0 11.0 0.00 0.00 0.00 57 1009.1
20170426170726 77 142 2.0 13.0 0.00 0.00 0.00 60 1009.1
20170426170226 76 175 5.0 14.0 0.00 0.00 0.00 58 1009.1
20170426165724 76 210 8.0 14.0 0.00 0.00 0.00 61 1009.1
20170426165223 76 170 2.0 5.0 0.00 0.00 0.00 65 1009.1
20170426164722 76 123 2.0 5.0 0.00 0.00 0.00 62 1009.1
20170426164221 75 183 3.0 5.0 0.00 0.00 0.00 67 1009.5
20170426163719 75 122 2.0 3.0 0.00 0.00 0.00 65 1009.5
20170426163219 74 188 1.0 3.0 0.00 0.00 0.00 67 1009.5
20170426162718 74 197 1.0 4.0 0.00 0.00 0.00 66 1009.5
20170426162216 74 152 3.0 4.0 0.00 0.00 0.00 65 1009.5
20170426161716 74 140 3.0 5.0 0.00 0.00 0.00 66 1009.5
20170426161215 74 148 2.0 5.0 0.00 0.00 0.00 66 1009.5
20170426160714 74 177 2.0 6.0 0.00 0.00 0.00 68 1009.5
20170426160213 74 161 3.0 6.0 0.00 0.00 0.00 70 1009.5
20170426155712 73 141 2.0 4.0 0.00 0.00 0.00 69 1009.5
20170426155210 73 182 1.0 5.0 0.00 0.00 0.00 71 1009.8
20170426154709 72 137 3.0 5.0 0.00 0.00 0.00 73 1009.8
20170426154209 72 279 1.0 6.0 0.00 0.00 0.00 71 1009.8
20170426153707 72 130 2.0 6.0 0.00 0.00 0.00 72 1009.8
20170426153206 72 141 3.0 5.0 0.00 0.00 0.00 72 1009.8
20170426152705 72 317 1.0 5.0 0.00 0.00 0.00 74 1009.8
20170426152204 71 194 2.0 5.0 0.00 0.00 0.00 74 1009.8
20170426151704 71 277 2.0 5.0 0.00 0.00 0.00 76 1009.8
20170426151202 70 126 2.0 5.0 0.00 0.00 0.00 77 1009.8
20170426150702 69 187 2.0 6.0 0.00 0.00 0.00 78 1009.8
20170426150200 69 134 2.0 6.0 0.00 0.00 0.00 78 1009.8
20170426145659 69 136 2.0 5.0 0.00 0.00 0.00 78 1009.8
20170426145159 69 173 2.0 5.0 0.00 0.00 0.00 78 1009.8
20170426144658 68 217 1.0 5.0 0.00 0.00 0.00 80 1010.2
20170426144157 67 164 3.0 6.0 0.00 0.00 0.00 82 1009.8
20170426143656 67 143 4.0 6.0 0.00 0.00 0.00 80 1010.2
20170426143154 68 146 3.0 5.0 0.00 0.00 0.00 81 1010.2
20170426142654 67 176 1.0 4.0 0.00 0.00 0.00 81 1010.2
20170426142153 66 131 2.0 4.0 0.00 0.00 0.00 82 1010.2
20170426141651 66 183 2.0 5.0 0.00 0.00 0.00 84 1010.2
20170426141150 66 139 3.0 5.0 0.00 0.00 0.00 82 1010.5
20170426140649 66 150 3.0 5.0 0.00 0.00 0.00 81 1010.5
20170426140148 66 137 1.0 5.0 0.00 0.00 0.00 83 1010.5
20170426135648 66 137 2.0 5.0 0.00 0.00 0.00 81 1010.5
20170426135147 67 160 2.0 4.0 0.00 0.00 0.00 81 1010.5
20170426134646 66 179 2.0 4.0 0.00 0.00 0.00 81 1010.5
20170426134145 66 277 1.0 3.0 0.00 0.00 0.00 83 1010.8
20170426133644 66 137 1.0 3.0 0.00 0.00 0.00 83 1010.8
20170426133143 66 288 1.0 2.0 0.00 0.00 0.00 83 1010.5
20170426132642 66 285 1.0 2.0 0.00 0.00 0.00 84 1010.5
20170426132141 65 228 1.0 3.0 0.00 0.00 0.00 85 1010.5
20170426131640 64 143 1.0 3.0 0.00 0.01 0.00 84 1010.5
20170426131139 64 201 2.0 3.0 0.00 0.01 0.00 86 1010.8
20170426130638 63 196 1.0 3.0 0.00 0.01 0.00 87 1010.8
20170426130137 62 164 1.0 3.0 0.00 0.01 0.00 90 1010.8
20170426125636 61 201 1.0 3.0 0.00 0.01 0.00 92 1010.8
20170426125135 60 200 2.0 3.0 0.00 0.01 0.00 94 1010.8
20170426124634 59 222 2.0 3.0 0.00 0.01 0.00 95 1010.8
20170426124133 59 194 0.0 2.0 0.00 0.01 0.00 96 1010.5
20170426123632 58 125 1.0 2.0 0.00 0.01 0.00 97 1010.8
20170426123131 57 34 1.0 3.0 0.00 0.01 0.00 96 1010.5
20170426122630 57 56 2.0 3.0 0.00 0.01 0.00 97 1010.5
20170426122129 57 57 2.0 3.0 0.00 0.01 0.00 97 1010.5
20170426121628 57 70 0.0 0.0 0.00 0.01 0.00 97 1010.5
20170426121126 56 70 0.0 0.0 0.00 0.01 0.00 97 1010.5
20170426120625 56 71 0.0 1.0 0.00 0.01 0.00 97 1010.5
20170426120124 56 70 0.0 1.0 0.00 0.01 0.00 97 1010.5
20170426115623 55 111 0.0 1.0 0.00 0.01 0.00 97 1010.5
20170426115122 55 111 0.0 1.0 0.00 0.01 0.00 97 1010.5
20170426114621 55 111 1.0 1.0 0.00 0.01 0.00 97 1010.5
20170426114120 55 134 0.0 1.0 0.00 0.01 0.00 97 1010.2
20170426113619 55 134 0.0 1.0 0.00 0.01 0.00 97 1010.2
20170426113118 55 134 1.0 1.0 0.00 0.01 0.00 97 1010.2
20170426112617 55 136 1.0 1.0 0.00 0.01 0.00 97 1009.8
20170426112116 55 146 1.0 1.0 0.00 0.01 0.00 97 1009.5
20170426111615 55 155 0.0 1.0 0.00 0.01 0.00 97 1009.5
20170426111114 55 155 0.0 0.0 0.00 0.01 0.00 97 1009.5
20170426110613 55 155 0.0 0.0 0.00 0.01 0.00 97 1009.1
20170426110112 54 155 0.0 0.0 0.00 0.01 0.00 97 1009.1
20170426105611 54 155 0.0 0.0 0.00 0.01 0.00 97 1009.1
20170426105110 54 155 0.0 0.0 0.00 0.01 0.00 97 1009.1
20170426104609 54 155 0.0 0.0 0.00 0.01 0.00 97 1009.1
20170426104108 54 155 0.0 0.0 0.00 0.01 0.00 97 1009.1
20170426103607 54 155 0.0 0.0 0.00 0.01 0.00 97 1008.8
20170426103106 54 155 0.0 0.0 0.00 0.01 0.00 97 1008.8
20170426102604 53 155 0.0 0.0 0.00 0.01 0.00 97 1008.8
20170426102103 53 155 0.0 0.0 0.00 0.01 0.00 96 1008.5
20170426101602 53 155 0.0 0.0 0.00 0.01 0.00 96 1008.1
20170426101101 53 155 0.0 0.0 0.00 0.01 0.00 96 1008.1
20170426100600 53 155 0.0 0.0 0.00 0.01 0.00 96 1008.1
20170426100059 53 155 0.0 0.0 0.00 0.01 0.00 96 1008.1
20170426095559 53 155 0.0 0.0 0.00 0.01 0.00 96 1007.8
20170426095058 53 155 0.0 0.0 0.00 0.01 0.00 96 1007.8
20170426094557 53 155 0.0 0.0 0.00 0.01 0.00 96 1007.5
20170426094056 53 155 0.0 0.0 0.00 0.01 0.00 96 1007.5
20170426093555 53 155 0.0 0.0 0.00 0.01 0.00 96 1007.5
20170426093054 53 155 0.0 0.0 0.00 0.01 0.00 96 1007.5
20170426092553 53 155 0.0 0.0 0.00 0.01 0.00 96 1007.5
20170426092052 53 155 0.0 0.0 0.00 0.01 0.00 96 1007.5
20170426091551 53 155 0.0 0.0 0.00 0.01 0.00 96 1007.5
20170426091050 53 155 0.0 0.0 0.00 0.01 0.00 96 1007.5
20170426090549 53 155 0.0 0.0 0.00 0.01 0.00 96 1007.5
20170426090048 53 155 0.0 0.0 0.00 0.01 0.00 96 1007.5
20170426085547 53 155 0.0 0.0 0.00 0.01 0.00 96 1007.5
20170426085046 54 155 0.0 0.0 0.00 0.01 0.00 96 1007.5
20170426084545 54 155 0.0 0.0 0.00 0.01 0.00 96 1007.5
20170426084043 54 155 0.0 0.0 0.00 0.01 0.00 96 1007.5
20170426083542 54 155 0.0 0.0 0.00 0.01 0.00 96 1007.5
20170426083040 54 155 0.0 0.0 0.00 0.01 0.00 96 1007.5
20170426082540 54 155 0.0 0.0 0.00 0.01 0.00 96 1007.5
20170426082037 54 155 0.0 0.0 0.00 0.01 0.00 96 1007.5
20170426081536 54 155 0.0 0.0 0.00 0.01 0.00 96 1007.1
20170426081034 54 155 0.0 0.0 0.00 0.01 0.00 96 1007.5
20170426080530 54 155 0.0 0.0 0.00 0.01 0.00 96 1007.5
20170426080029 54 155 0.0 0.0 0.00 0.01 0.00 96 1007.5
20170426075528 54 155 0.0 0.0 0.00 0.01 0.00 96 1007.5
20170426075027 54 155 0.0 0.0 0.00 0.01 0.00 96 1007.1
20170426074526 54 155 0.0 0.0 0.00 0.01 0.00 96 1007.1
20170426074025 54 155 0.0 0.0 0.00 0.01 0.00 96 1007.1
20170426073524 54 155 0.0 0.0 0.00 0.01 0.00 96 1007.1
20170426073023 54 155 0.0 0.0 0.00 0.01 0.00 96 1007.1
20170426072522 54 155 0.0 0.0 0.00 0.01 0.00 96 1007.1
20170426072021 54 155 0.0 0.0 0.00 0.01 0.00 96 1007.1
20170426071520 54 155 0.0 0.0 0.00 0.01 0.00 96 1007.1
20170426071019 54 155 0.0 0.0 0.00 0.01 0.00 96 1007.1
20170426070518 54 155 0.0 0.0 0.00 0.01 0.00 96 1007.5
20170426070017 54 155 0.0 0.0 0.00 0.01 0.00 96 1007.5
20170426065516 54 155 0.0 0.0 0.00 0.01 0.00 96 1007.5
20170426065015 55 155 0.0 0.0 0.00 0.01 0.00 96 1007.5
20170426064515 55 155 0.0 0.0 0.00 0.01 0.00 96 1007.5
20170426064013 55 155 0.0 0.0 0.00 0.01 0.00 96 1007.5
20170426063512 55 155 0.0 0.0 0.00 0.01 0.00 96 1007.5
20170426063011 55 155 0.0 0.0 0.00 0.01 0.00 96 1007.5
20170426062510 55 155 0.0 0.0 0.00 0.01 0.00 96 1007.5
20170426062009 55 155 0.0 0.0 0.00 0.01 0.00 96 1007.5
20170426061508 55 155 0.0 0.0 0.00 0.01 0.00 96 1007.5
20170426061006 55 155 0.0 0.0 0.00 0.01 0.00 96 1007.5
20170426060504 55 155 0.0 0.0 0.00 0.01 0.00 96 1007.8
20170426060003 55 155 0.0 0.0 0.00 0.01 0.00 96 1007.8
20170426055428 55 155 0.0 0.0 0.00 0.01 0.00 96 1007.8
20170426054927 55 155 0.0 0.0 0.00 0.01 0.00 95 1007.8
20170426054426 55 155 0.0 0.0 0.00 0.01 0.00 95 1008.1
20170426053924 55 155 0.0 0.0 0.00 0.01 0.00 96 1008.1
20170426053423 56 155 0.0 0.0 0.00 0.01 0.00 96 1008.1
20170426052922 56 155 0.0 0.0 0.00 0.01 0.00 95 1008.1
20170426052421 56 155 0.0 0.0 0.00 0.01 0.00 95 1008.1
20170426051920 56 155 0.0 0.0 0.00 0.01 0.00 95 1008.1
20170426051419 56 155 0.0 0.0 0.00 0.01 0.00 95 1008.1